Location: Boiro
(42.6475°N, 8.8834°W)
Time: 01:44:26
(UTC+01:00)

Transit 2A Rocket - Pass Details

Date: 04 December 2021
Orbit: 584 x 917 km, 66.7° (Epoch: 23 January)

Event Time Altitude Azimuth Distance (km) Brightness Sun altitude
Rises 16:00:36 0° 336° (NNW) 3,564 8.2 15.9°
Reaches altitude 10° 16:04:02 10° 354° (N) 2,613 7.4 15.5°
Maximum altitude 16:08:10 18° 37° (NE) 2,042 6.7 15.0°
Drops below altitude 10° 16:12:11 10° 80° (E) 2,534 7.3 14.6°
Sets 16:15:26 0° 98° (E) 3,419 8.1 14.2°
